Location: Newark
(52.2090°N, 4.1550°W)
Time: 13:31:14
(UTC+00:00)

Explorer 7 - Pass Details

Date: 26 September 2019
Orbit: 485 x 680 km, 50.3° (Epoch: 19 October)

Event Time Altitude Azimuth Distance (km) Brightness Sun altitude
Rises 23:00:38 0° 261° (W) 2,813 - -37.3°
Reaches altitude 10° 23:02:51 10° 259° (WSW) 1,945 - -37.4°
Maximum altitude 23:07:18 70° 176° (S) 670 - -37.7°
Drops below altitude 10° 23:12:02 10° 93° (E) 2,059 - -37.9°
Sets 23:14:26 0° 92° (E) 2,993 - -38.0°
